Dean International
Flight School

Career Spotlight

Mika

Mika

Congratulations to Mika from Khazakstan. She recently sent us this photo of her flying an Airbus airliner.

More...
Mika's Success Story
close

Congratulations to Mika from Khazakstan. She recently sent us this photo of her flying an Airbus airliner.

Mario

Mario

My dreams could not have been realized if I wouldn't have been part of the Dean International family.

More...
Mario's Success Story
close

"My dreams could not have been realized if I wouldn't have been part of the Dean International family. Thank you Robert, thanks to all my co-workers, and thanks to all of my students!"

Fernando

Fernando

I am now working as a First Officer at TACA and am enjoying every moment of it.

More...
Fernando's Success Story
close

"Will never forget my time of flight training at Dean International. I am now working as a First Officer at TACA and am enjoying every moment of it."

Alvaro

Alvaro

Because of the flight time I was able to built while instructing, I got the experience needed to apply to an airline in Colombia.

More...
Alvaro's Success Story
close

Dean alumnus Alvaro Londoño currently flies with Tampa Cargo. He says of his experience at Dean: "I want to take this opportunity to thank you for giving me the chance to build my experience and expand my knowledge in Dean International. Because of the flight time I was able to built flight instructing, I got the experience needed to apply to an airline in Colombia."

Ralph

Ralph

Every Aruban student of Dean International has made it into Tiara Air Aruba, that is very nice.

More...
Ralph's Success Story
close

"Next to me is my Co-Pilot, Elison. This picture was taken on our first flight together, which was almost exactly 5 years after I finished at Dean International. [...] Every Aruban student of Dean International has made it into Tiara Air Aruba. [...] The future looks bright here in Aruba."

Rohaan

Rohaan

The [..] staff will all work diligently to help you finish your certificates as safely and efficiently as possible.

More...
Rohaan's Success Story
close

After receiving very hard times from other flight schools [...], I came to Dean International where Robert Dean personally sat down with me and gave me a financial and chronological look into how much remained to finish my private pilot certificate. Through his hard efforts as an instructor and mentor, I was able to finish my private pilot certificate within one week.

Welcome to Dean International

In over two decades, Dean International has educated over 7,000 pilots from all over the world, including over 1,000 students from India alone. By offering a great training experience, a friendly service staff, an ample variety of aircraft, and by improving constantly, we have become one of the largest, most prestigious FAA 141-approved flight schools in North America. Located in Miami, Florida, USA, our flight school offers an ideal location for year-round, "learn to fly" weather, flight training. Dean International is not only well-equipped to provide services to professional trainees but also caters to General Aviation renters. Visit or contact our headquarters at Kendall-Tamiami Executive Airport located in Miami, FL today to learn more about us, or simply read more about our programs if you are an international student interested in joining our school.

Local Airport Information
TAF FOR KTMB (Issued: Tue, June 28th 2016 3:57 PM UTC)
TAF
      AMD KTMB 281454Z 2815/2912 VRB06KT P6SM VCSH SCT025
      FM281600 15008KT P6SM VCTS SCT025 BKN035CB
      FM282200 VRB06KT P6SM VCSH SCT025 BKN250
      FM290100 VRB03KT P6SM FEW025
     
METAR FOR KTMB (Issued: Tue, June 28th 2016 3:53 PM UTC):
KTMB 281553Z 13006KT 10SM FEW044 BKN100 31/23 A3003 RMK AO2 SLP169 T03110228

This weather information is provided by the National Weather Service.
It is automatically refreshed every three minutes.
TAF FOR KHST (Issued: Tue, June 28th 2016 4:09 PM UTC)
TAF KHST 281603Z 2816/2922 13006KT 9000 -SHRA FEW015 SCT050 QNH2996INS
      TEMPO 2816/2821 16009KT 6000 -TSRA BKN025CB
      BECMG 2820/2821 16009KT 9999 NSW SCT028 QNH2996INS
      BECMG 2902/2903 VRB02KT 9999 FEW028 QNH2999INS
      BECMG 2915/2916 13009KT 9999 SCT050 QNH2998INS TX31/2821Z TN24/2908Z
     
METAR FOR KHST (Issued: Tue, June 28th 2016 3:58 PM UTC):
KHST 281558Z AUTO 14002KT 10SM FEW020 BKN110 29/22 A3003 RMK AO2 RAE45DZB45E47 SLP172 P0018 T02890221

This weather information is provided by the National Weather Service.
It is automatically refreshed every three minutes.
TAF FOR KOPF (Issued: Tue, June 28th 2016 3:54 PM UTC)
TAF
      AMD KOPF 281453Z 2815/2912 VRB06KT P6SM VCSH SCT025
      FM281600 15010KT P6SM VCTS SCT025 BKN035CB
      FM282100 VRB06KT P6SM VCSH SCT025 BKN250
      FM290100 VRB03KT P6SM FEW025
     
METAR FOR KOPF (Issued: Tue, June 28th 2016 3:53 PM UTC):
KOPF 281553Z 12007KT 10SM FEW050 BKN075 BKN110 29/22 A3004 RMK AO2 RAB16E31 SLP174 P0000 T02890217

This weather information is provided by the National Weather Service.
It is automatically refreshed every three minutes.
TAF FOR KMIA (Issued: Tue, June 28th 2016 3:57 PM UTC)
TAF
      AMD KMIA 281453Z 2815/2912 VRB06KT P6SM VCSH SCT025
      FM281600 14010KT P6SM VCTS SCT025 BKN035CB
      FM282200 VRB06KT P6SM VCSH SCT025 BKN250
      FM290100 VRB03KT P6SM FEW025
     
METAR FOR KMIA (Issued: Tue, June 28th 2016 3:53 PM UTC):
KMIA 281553Z 23006KT 10SM SCT035CB SCT070 BKN250 28/23 A3004 RMK AO2 RAB09E50 SLP171 CB N-NE MOV STNRY CB DSNT SW TCU SW P0002 T02780228

This weather information is provided by the National Weather Service.
It is automatically refreshed every three minutes.
Design by Ariel Llizo
© Dean International Inc. 2012